Home   Weather   Steyr   Past weeks

Flag for Austria Past Weather in Steyr, Upper Austria, Austria — Yesterday and Last 2 Weeks

Now
62 °F

Cool.


Feels Like: 62 °F
Forecast: 51 / 73 °F
Wind: 1 mph from East

Location: Kremsmuenster

Current Time: Sep 28, 2016 at 12:24:03 PM

Latest Report: Sep 28, 2016 at 12:00 PM


Visibility: N/A

Pressure: 30.41 "Hg

Humidity: 69%

Dew Point: 52 °F

Location of SteyrLocation

Past Weather in Steyr — Graph

°F

Steyr Temperature Yesterday

Maximum temperature yesterday: 70 °F (at 4:00 PM)
Minimum temperature yesterday: 47 °F (at 8:00 AM)
Average temperature yesterday: 57 °F

High & Low Weather Summary for the Past Weeks

 TemperatureHumidityPressure
High83 °F (Sep 13, 4:00 PM)97% (Sep 21, 6:00 AM)30.43 "Hg (Sep 21, 6:00 AM)
Low44 °F (Sep 23, 6:00 AM)46% (Sep 22, 4:00 PM)29.80 "Hg (Sep 17, 2:00 AM)
Average59 °F77%30.08 "Hg
* Reported Sep 13 11:00 AM — Sep 28 11:00 AM, Steyr, Weather by CustomWeather, © 2016

Note: Actual official high and low records may vary slightly from our data, if they occured in-between our weather recording intervals... More about our weather records

Advertising

Steyr Weather History for the Previous 24 Hours

Scroll right to see more
 ConditionsComfort  
Time TempWeatherWind HumidityBarometerVisibility
11:00 AM
Wed, Sep 28
59 °FOvercast.1 mph75%30.43 "Hg22 mi
10:00 AM56 °FCool.1 mph77%30.43 "HgN/A
9:00 AM52 °FCool.1 mph82%30.42 "HgN/A
8:00 AM49 °FPassing clouds.6 mph86%30.42 "Hg19 mi
6:00 AM50 °FCool.3 mph87%30.42 "HgN/A
5:00 AM50 °FCool.3 mph86%30.41 "HgN/A
4:00 AM50 °FCool.2 mph88%30.41 "HgN/A
3:00 AM50 °FCool.1 mph89%30.42 "HgN/A
2:00 AM52 °FCool.2 mph84%30.40 "HgN/A
1:00 AM54 °FCool.7 mph79%30.39 "HgN/A
12:00 AM55 °FCool.7 mph79%30.39 "HgN/A
11:00 PM
Tue, Sep 27
55 °FCool.7 mph78%30.39 "HgN/A
10:00 PM56 °FCool.7 mph76%30.38 "HgN/A
9:00 PM58 °FCool.6 mph73%30.36 "HgN/A
8:00 PM60 °FPassing clouds.5 mph73%30.34 "Hg16 mi
7:00 PM62 °FCool.1 mph62%30.32 "HgN/A
6:00 PM66 °FMild.1 mph51%30.29 "HgN/A
5:00 PM69 °FPassing clouds.No wind47%30.28 "Hg25 mi
4:00 PM70 °FMild.No wind48%30.27 "HgN/A
3:00 PM69 °FMild.No wind51%30.28 "HgN/A
2:00 PM66 °FMild.1 mph59%30.28 "HgN/A
1:00 PM65 °FMild.2 mph66%30.29 "HgN/A
12:00 PM61 °FCool.1 mph76%30.29 "HgN/A
Weather by CustomWeather, © 2016

See weather overviewHow to use our weather pages